Regional Weather Roundup
Issued by NWS

Home | Current Version | Previous Version | Text Only | Print | Product List | Glossary Off
Versions: 1 2 3 4 5 6 7 8 9 10 11 12 13 14 15 16 17 18 19 20 21 22 23 24 25 26 27 28 29 30 31 32 33 34 35 36 37 38 39 40 41 42 43 44 45 46 47 48 49 50

000
ASUS45 KPSR 140700
RWRAZ

PRELIMINARY ARIZONA REGIONAL HOURLY WEATHER ROUNDUP
NATIONAL WEATHER SERVICE PHOENIX AZ
1200 AM MST MON JUL 14 2014

NOTE: FAIR INDICATES FEW OR NO CLOUDS BELOW 12,000 FEET WITH NO
SIGNIFICANT WEATHER AND/OR OBSTRUCTIONS TO VISIBILITY.

AZZ001>003-036-140800-
NORTHWEST ARIZONA

CITY           SKY/WX    TMP DP  RH WIND       PRES   REMARKS
KINGMAN        CLOUDY    79  61  53 SW10      30.03F
$$

AZZ004>008-015-016-018-140800-
NORTH CENTRAL ARIZONA

CITY           SKY/WX    TMP DP  RH WIND       PRES   REMARKS
WILLIAMS       CLOUDY    61  55  82 S7        30.39S
PRESCOTT       CLOUDY    75  57  53 CALM      30.23R
FLAGSTAFF      MOCLDY    61  51  70 SW3       30.37R
PAYSON         CLOUDY    73  55  53 CALM      30.28R
PAGE           PTCLDY    87  50  27 SW7       30.05F
$$

AZZ009>014-017-140800-
NORTHEAST ARIZONA

CITY           SKY/WX    TMP DP  RH WIND       PRES   REMARKS
WINSLOW        NOT AVBL
SAINT JOHNS    LGT RAIN  65  59  81 NE8       30.34R
WINDOW ROCK    LGT RAIN  60  56  86 SW10      30.40F
$$

AZZ023-140800-
GREATER PHOENIX AREA

CITY           SKY/WX    TMP DP  RH WIND       PRES   REMARKS
PHOENIX        CLOUDY    80  68  66 S9G18     29.97R
LUKE AFB       NOT AVBL
DEER VALLEY    CLOUDY    80  68  66 S9        30.03R
SCOTTSDALE     MOCLDY    81  68  64 S7        30.03R
MESA-GATEWAY   MOCLDY    81  66  61 E10G22    30.04R
$$

AZZ027-028-140800-
SOUTHWEST MARICOPA COUNTY AND PINAL COUNTY

CITY           SKY/WX    TMP DP  RH WIND       PRES   REMARKS
CASA GRANDE    CLOUDY    75  70  83 W7        29.96F
$$

AZZ503-504-507>509-140800-
SOUTHEAST ARIZONA

CITY           SKY/WX    TMP DP  RH WIND       PRES   REMARKS
TUCSON         CLOUDY    74  68  81 S6        30.09F
DAVIS-MONTHAN  CLOUDY    73  69  88 SE3       30.08F
NOGALES        CLOUDY    69  66  90 CALM      30.15S
SIERRA VISTA   MOCLDY    70  63  78 CALM      30.22R
SAFFORD        MOCLDY    76  66  71 SW3       30.08S
$$

AZZ020-021-025-026-031-140800-
SOUTHWEST ARIZONA

CITY           SKY/WX    TMP DP  RH WIND       PRES   REMARKS
YUMA           NOT AVBL
$$

CAZ031-033-041-043-047-048-061-140800-
SOUTHERN CALIFORNIA

CITY           SKY/WX    TMP DP  RH WIND       PRES   REMARKS
DOWNTOWN L.A.  PTCLDY    71  62  73 VRB3      29.92S
L.A. AIRPORT   MOCLDY    70  63  78 SE8       29.93S
SAN DIEGO      CLOUDY    69  61  75 S7        29.95F
BURBANK        PTCLDY    70  62  76 SE7       29.93S
ONTARIO        PTCLDY    72  61  68 W8        29.94R
RIVERSIDE      PTCLDY    73  61  65 W5        29.94R
PALM SPRINGS   PTCLDY    94  60  32 NE8       29.87R
EL CENTRO NAS  CLOUDY    90  66  45 E15       29.81R
IMPERIAL       LGT RAIN  88  71  57 SE24      29.82R
BLYTHE         CLOUDY    92  61  35 S15       29.84R
$$

NVZ020-UTZ003-140800-
SOUTHERN NEVADA-UTAH

CITY           SKY/WX    TMP DP  RH WIND       PRES   REMARKS
LAS VEGAS      CLOUDY    99  46  16 SE9       29.88R
SALT LAKE CITY MOCLDY    77  49  37 W6        30.08F
$$

NMZ009-TXZ055-140800-
NEW MEXICO-WEST TEXAS

CITY           SKY/WX    TMP DP  RH WIND       PRES   REMARKS
ALBUQUERQUE    CLOUDY    72  54  53 NE5       30.30R
EL PASO        MOCLDY    80  56  43 N13       30.12S
$$


........................KEY........................
SKY/WX - SKY CONDITION/WEATHER
TMP    - TEMPERATURE IN FAHRENHEIT
DP     - DEW POINT IN FAHRENHEIT
RH     - RELATIVE HUMIDITY IN PERCENT
WIND   - DIRECTION AND SPEED IN MILES PER HOUR (MPH)
VRB    - VARIABLE WIND DIRECTION
PRES   - MEAN SEA LEVEL PRESSURE IN INCHES OF MERCURY
         F - FALLING PRESSURE   R - RISING PRESSURE
         S - STEADY PRESSURE
VSB    - VISIBILITY IN MILES
HX     - HEAT INDEX IN FAHRENHEIT
WCI    - WIND CHILL INDEX IN FAHRENHEIT
TC     - TEMPERATURE IN CELSIUS WHICH IS ALSO KNOWN AS
         TEMPERATURE IN CENTIGRADE
AFB    - AIR FORCE BASE
         LUKE AFB IS LUKE AIR FORCE BASE
         DAVIS-MONTHAN IS DAVIS-MONTHAN AIR FORCE BASE
NAS    - NAVAL AIR STATION
         EL CENTRO NAS IS EL CENTRO NAVAL AIR STATION
N/A    - NOT AVAILABLE


USA.gov is the U.S. government's official web portal to all federal, state and local government web resources and services.